Location: Boiro
(42.6475°N, 8.8834°W)
Time: 02:25:56
(UTC+01:00)

Tiros 1 despin weight - Pass Details

Date: 08 December 2021
Orbit: 592 x 641 km, 48.2° (Epoch: 23 January)

Event Time Altitude Azimuth Distance (km) Brightness Sun altitude
Rises 12:19:41 0° 217° (SW) 2,853 ? 22.7°
Reaches altitude 10° 12:22:06 10° 209° (SSW) 1,944 ? 22.9°
Maximum altitude 12:26:12 36° 142° (SE) 950 ? 23.1°
Drops below altitude 10° 12:30:15 10° 76° (ENE) 1,931 ? 23.3°
Sets 12:32:39 0° 68° (ENE) 2,831 ? 23.4°
